If you wish to contribute or participate in the discussions about articles you are invited to join SKYbrary as a registered user

 Actions

Joinville-Lauro Carneiro de Loyola Airport

From SKYbrary Wiki

SBJV
Airport
ICAO: SBJV – IATA: JOI
Summary
Name Joinville-Lauro Carneiro de Loyola Airport
Region South America and Caribbean
Territory Brazil BR.gif
Location Joinville, Santa Catarina
Serving Joinville
Elevation 3.962 m
13 ft3.962 m
Coordinates 26° 13' 23.02" S, 48° 47' 51.00" W
Runways
Designator Length Width Surface ROPS
15/33 1640 m5,380.577 ft
45 m147.638 ft
ASP yes/yes


METAR
Observation SBJV 151800Z 04007KT 9999 BKN020 BKN080 28/24 Q1012
Station JOINVILLE
Date/Time 15 December 2019 18:00:00
Wind direction 40°
Wind speed 07 kts
Lowest cloud amount broken clouds
Temperature 28°C
Dew point 24°C
Humidity 78%
QNH 1012 hPa
Weather condition n/a

Joinville-Lauro Carneiro de Loyola Airport is the airport serving Joinville, Brazil.

Climatology

Humid subtropical climate (Köppen climate classification Cfa)

Maps

Terrain

Loading map...

Airport Layout

Loading map...


Accidents & Serious Incidents at or in vicinity of SBJV

None on SKYbrary